Location: Seattle
(47.6064°N, 122.3308°W)
Time: 14:33:48
(UTC-08:00)

Vanguard 1 - Visible Passes

Search period start: 25 November 2020 00:00
Search period end: 05 December 2020 00:00
Orbit: 650 x 3833 km, 34.2° (Epoch: 25 November)

Date Brightness Start Highest point End Pass type
(mag) Time Alt. Az. Time Alt. Az. Time Alt. Az.
25 Nov 12.4 05:49:25 10° SSW 05:55:43 29° SSE 06:05:44 10° E visible
26 Nov 12.3 06:09:32 10° SW 06:16:09 33° SSE 06:27:04 10° ESE visible
27 Nov 12.4 04:14:24 10° S 04:17:43 14° SE 04:21:51 10° ESE visible
27 Nov 12.3 06:29:49 10° SW 06:36:40 36° SSE 06:48:17 10° ESE visible
28 Nov 12.2 04:33:58 11° S 04:37:56 19° SE 04:43:49 10° ESE visible
28 Nov 12.3 06:50:14 10° SW 06:57:17 38° S 07:09:23 10° ESE visible
29 Nov 12.0 04:54:00 12° SSW 04:58:15 23° SSE 05:05:19 10° ESE visible
30 Nov 11.9 05:14:00 12° SSW 05:18:40 27° SSE 05:26:34 10° ESE visible
01 Dec 11.9 05:33:58 11° SW 05:39:10 30° SSE 05:47:42 10° ESE visible
02 Dec 12.2 03:41:11 14° SE 03:41:11 14° SE 03:44:11 10° ESE visible
02 Dec 11.9 05:54:10 10° SW 05:59:45 31° S 06:08:43 10° ESE visible
03 Dec 11.9 04:01:06 18° SSE 04:01:06 18° SSE 04:05:45 10° ESE visible
03 Dec 12.0 06:14:41 10° WSW 06:20:24 32° S 06:29:36 10° ESE visible
04 Dec 11.6 04:21:00 21° SSE 04:21:33 22° SSE 04:26:59 10° ESE visible
04 Dec 12.0 06:35:18 10° WSW 06:41:05 30° S 06:50:20 10° SE visible
